TimePDT,TemperatureF,Dew PointF,Humidity,Sea Level PressureIn,VisibilityMPH,Wind Direction,Wind SpeedMPH,Gust SpeedMPH,PrecipitationIn,Events,Conditions,WindDirDegrees,DateUTC
12:15 AM,41.0,28.4,61,30.19,10.0,SSW,3.5,-,N/A,,Clear,200,2013-06-16 07:15:00
12:35 AM,39.2,28.4,65,30.19,10.0,Calm,Calm,-,N/A,,Clear,0,2013-06-16 07:35:00
12:55 AM,39.2,28.4,65,30.19,10.0,South,3.5,-,N/A,,Clear,190,2013-06-16 07:55:00
1:15 AM,37.4,28.4,70,30.20,10.0,Calm,Calm,-,N/A,,Clear,0,2013-06-16 08:15:00
1:35 AM,37.4,28.4,70,30.20,10.0,Calm,Calm,-,N/A,,Clear,0,2013-06-16 08:35:00
1:55 AM,37.4,28.4,70,30.19,10.0,Calm,Calm,-,N/A,,Clear,0,2013-06-16 08:55:00
2:15 AM,37.4,26.6,65,30.19,10.0,Calm,Calm,-,N/A,,Clear,0,2013-06-16 09:15:00
2:35 AM,35.6,26.6,70,30.20,10.0,Calm,Calm,-,N/A,,Clear,0,2013-06-16 09:35:00
2:55 AM,35.6,26.6,70,30.19,10.0,Calm,Calm,-,N/A,,Clear,0,2013-06-16 09:55:00
3:15 AM,32.0,26.6,80,30.20,10.0,Calm,Calm,-,N/A,,Clear,0,2013-06-16 10:15:00
3:35 AM,32.0,28.4,87,30.20,10.0,Calm,Calm,-,N/A,,Clear,0,2013-06-16 10:35:00
3:55 AM,32.0,28.4,87,30.20,10.0,SSE,4.6,-,N/A,,Clear,150,2013-06-16 10:55:00
4:15 AM,32.0,26.6,80,30.20,10.0,Calm,Calm,-,N/A,,Clear,0,2013-06-16 11:15:00
4:35 AM,32.0,26.6,80,30.21,10.0,Calm,Calm,-,N/A,,Clear,0,2013-06-16 11:35:00
4:55 AM,28.4,24.8,86,30.21,10.0,Calm,Calm,-,N/A,,Clear,0,2013-06-16 11:55:00
5:15 AM,32.0,26.6,80,30.21,10.0,Calm,Calm,-,N/A,,Clear,0,2013-06-16 12:15:00
5:35 AM,32.0,26.6,80,30.22,10.0,Calm,Calm,-,N/A,,Clear,0,2013-06-16 12:35:00
5:55 AM,28.4,24.8,86,30.22,10.0,Calm,Calm,-,N/A,,Clear,0,2013-06-16 12:55:00
6:15 AM,28.4,24.8,86,30.23,10.0,Calm,Calm,-,N/A,,Clear,0,2013-06-16 13:15:00
6:35 AM,32.0,24.8,75,30.23,10.0,Calm,Calm,-,N/A,,Clear,0,2013-06-16 13:35:00
6:50 AM,33.8,23.0,65,30.23,10.0,Calm,Calm,-,N/A,,Clear,0,2013-06-16 13:50:00
7:55 AM,42.8,24.8,49,30.24,10.0,Calm,Calm,-,N/A,,Clear,0,2013-06-16 14:55:00
8:50 AM,51.8,26.6,38,30.25,10.0,East,3.5,-,N/A,,Clear,100,2013-06-16 15:50:00
9:50 AM,60.8,30.2,31,30.23,10.0,Calm,Calm,-,N/A,,Clear,0,2013-06-16 16:50:00
10:50 AM,66.2,28.4,24,30.23,10.0,Calm,Calm,-,N/A,,Partly Cloudy,0,2013-06-16 17:50:00
11:45 AM,68.0,26.6,21,30.23,10.0,West,13.8,-,N/A,,Partly Cloudy,270,2013-06-16 18:45:00
12:45 PM,71.6,26.6,19,30.23,10.0,West,10.4,19.6,N/A,,Partly Cloudy,270,2013-06-16 19:45:00
1:50 PM,71.6,26.6,19,30.23,10.0,WNW,11.5,19.6,N/A,,Scattered Clouds,290,2013-06-16 20:50:00
2:45 PM,71.6,28.4,20,30.23,10.0,WSW,9.2,18.4,N/A,,Scattered Clouds,250,2013-06-16 21:45:00
3:55 PM,71.6,28.4,20,30.23,10.0,WSW,12.7,17.3,N/A,,Partly Cloudy,250,2013-06-16 22:55:00
4:50 PM,71.6,30.2,22,30.23,10.0,West,12.7,19.6,N/A,,Partly Cloudy,260,2013-06-16 23:50:00
5:45 PM,68.0,28.4,23,30.24,10.0,West,13.8,23.0,N/A,,Partly Cloudy,260,2013-06-17 00:45:00
5:55 PM,68.0,28.4,23,30.24,10.0,West,13.8,19.6,N/A,,Clear,270,2013-06-17 00:55:00
6:15 PM,68.0,32.0,26,30.24,10.0,WSW,12.7,21.9,N/A,,Clear,240,2013-06-17 01:15:00
6:35 PM,68.0,30.2,24,30.24,10.0,West,11.5,18.4,N/A,,Clear,280,2013-06-17 01:35:00
6:55 PM,66.2,28.4,24,30.24,10.0,West,11.5,17.3,N/A,,Clear,280,2013-06-17 01:55:00
7:15 PM,66.2,30.2,26,30.25,10.0,West,10.4,-,N/A,,Clear,270,2013-06-17 02:15:00
7:35 PM,64.4,30.2,28,30.25,10.0,West,9.2,-,N/A,,Clear,260,2013-06-17 02:35:00
7:55 PM,64.4,28.4,26,30.26,10.0,West,11.5,-,N/A,,Clear,270,2013-06-17 02:55:00
8:15 PM,62.6,28.4,27,30.26,10.0,West,8.1,17.3,N/A,,Clear,270,2013-06-17 03:15:00
8:35 PM,60.8,28.4,29,30.26,10.0,Calm,Calm,-,N/A,,Clear,0,2013-06-17 03:35:00
8:55 PM,59.0,28.4,31,30.26,10.0,WNW,4.6,-,N/A,,Clear,290,2013-06-17 03:55:00
9:15 PM,57.2,28.4,33,30.27,10.0,West,5.8,-,N/A,,Clear,270,2013-06-17 04:15:00
9:35 PM,53.6,28.4,38,30.27,10.0,Calm,Calm,-,N/A,,Clear,0,2013-06-17 04:35:00
9:55 PM,50.0,32.0,50,30.28,10.0,SSE,3.5,-,N/A,,Clear,160,2013-06-17 04:55:00
10:15 PM,46.4,30.2,53,30.28,10.0,SSE,8.1,-,N/A,,Clear,150,2013-06-17 05:15:00
10:35 PM,46.4,32.0,57,30.28,10.0,SSE,4.6,-,N/A,,Clear,160,2013-06-17 05:35:00
10:55 PM,46.4,32.0,57,30.28,10.0,SSW,3.5,-,N/A,,Clear,200,2013-06-17 05:55:00
11:15 PM,44.6,32.0,61,30.28,10.0,Calm,Calm,-,N/A,,Clear,0,2013-06-17 06:15:00
11:35 PM,41.0,28.4,61,30.28,10.0,SSE,6.9,-,N/A,,Clear,150,2013-06-17 06:35:00
11:55 PM,41.0,30.2,65,30.28,10.0,South,4.6,-,N/A,,Clear,170,2013-06-17 06:55:00